Location: Bjelajci
(45.0103°N, 16.1758°E)
Time: 03:43:14
(UTC+00:00)

DELTA 2 DEB (DPAF) - Pass Details

Date: 14 July 2020
Orbit: 641 x 647 km, 98.3° (Epoch: 11 August)

Event Time Altitude Azimuth Distance (km) Brightness Sun altitude
Exits shadow 00:46:49 42° 219° (SW) 918 4.4 -19.1°
Maximum altitude 00:47:47 51° 260° (W) 817 4.4 -19.1°
Drops below altitude 10° 00:52:09 10° 336° (NNW) 2,052 7.2 -18.7°
Sets 00:54:25 0° 342° (NNW) 2,966 8.2 -18.5°
